Weather History for KMGM - March, 2013

Change the Weather History Date:

Tuesday, March 26, 2013

  Actual Average Record
Temperature  
Mean Temperature 42 °F 60 °F  
Max Temperature 51 °F 72 °F 87 °F (1936)
Min Temperature 33 °F 47 °F 26 °F (1894)
Degree Days  
Heating Degree Days 23 6  
Month to date heating degree days 328 226  
Since 1 July heating degree days 1806 2098  
Cooling Degree Days 0 1  
Month to date cooling degree days 7 21  
Year to date cooling degree days 29 27  
Moisture  
Dew Point 24 °F    
Average Humidity 52    
Maximum Humidity 69    
Minimum Humidity 35    
Precipitation  
Precipitation 0.00 in 0.20 in 3.10 in (1888)
Month to date precipitation 2.88 5.03  
Year to date precipitation 19.65 14.96  
Snow  
Snow 0.00 in 0.00 in - ()
Month to date snowfall 0.0 0.3  
Since 1 July snowfall 0.0 0.4  
Snow Depth 0.00 in    
Sea Level Pressure  
Sea Level Pressure 30.28 in    
Wind  
Wind Speed 10 mph (NW)    
Max Wind Speed 20 mph    
Max Gust Speed 26 mph    
Visibility 10 miles    
Events      
T = Trace of Precipitation, MM = Missing Value Source: NWS Daily Summary

Daily Weather History Graph

Daily Weather History Graph

Search for Another Location

Airport or City:

Trip Planner

Search our weather history database for the weather conditions in past years. The results will help you decide how hot, cold, wet, or windy it might be!

Date:

Astronomy

Mar. 26, 2013 Rise Set
Actual Time 6:41 AM CDT 7:01 PM CDT
Civil Twilight 6:16 AM CDT 7:26 PM CDT
Nautical Twilight 5:48 AM CDT 7:54 PM CDT
Astronomical Twilight 5:18 AM CDT 8:24 PM CDT
Moon 6:36 PM CDT (3/26) 5:56 AM CDT (3/26)
Length of Visible Light 13h 09m
Length of Day
12h 20m
Waxing Gibbous, 99% of the Moon is Illuminated
Mar 26
Waxing Gibbous
Mar 27
Full
Apr 2
Last Quarter
Apr 10
New
Apr 18
First Quarter

Hourly Weather History & Observations

Time (CDT) Temp. Windchill Dew Point Humidity Pressure Visibility Wind Dir Wind Speed Gust Speed Precip Events Conditions
12:53 AM 37.9 °F 31.5 °F 23.0 °F 55% 30.22 in 10.0 mi NW 9.2 mph - N/A   Clear
1:53 AM 37.4 °F 31.4 °F 24.8 °F 60% 30.21 in 10.0 mi WNW 8.1 mph - N/A   Clear
2:53 AM 35.1 °F 31.0 °F 24.1 °F 64% 30.21 in 10.0 mi WNW 4.6 mph - N/A   Clear
3:53 AM 34.0 °F 27.2 °F 24.1 °F 67% 30.20 in 10.0 mi WNW 8.1 mph - N/A   Clear
4:53 AM 34.0 °F 27.2 °F 23.0 °F 64% 30.21 in 10.0 mi WNW 8.1 mph - N/A   Clear
5:53 AM 33.1 °F 25.5 °F 23.0 °F 66% 30.22 in 10.0 mi WNW 9.2 mph - N/A   Clear
6:53 AM 33.1 °F 25.5 °F 24.1 °F 70% 30.25 in 10.0 mi WNW 9.2 mph - N/A   Clear
7:53 AM 37.0 °F 31.0 °F 25.0 °F 62% 30.27 in 10.0 mi WNW 8.1 mph - N/A   Clear
8:53 AM 39.9 °F 31.8 °F 25.0 °F 55% 30.29 in 10.0 mi NW 15.0 mph - N/A   Clear
9:53 AM 43.0 °F 36.8 °F 25.0 °F 49% 30.30 in 10.0 mi NNW 11.5 mph - N/A   Partly Cloudy
10:53 AM 46.0 °F 40.6 °F 24.1 °F 42% 30.30 in 10.0 mi WNW 11.5 mph 18.4 mph N/A   Scattered Clouds
11:53 AM 48.0 °F - 23.0 °F 37% 30.30 in 10.0 mi WNW 8.1 mph 24.2 mph N/A   Mostly Cloudy
12:53 PM 48.0 °F - 23.0 °F 37% 30.30 in 10.0 mi NW 16.1 mph 26.5 mph N/A   Overcast
1:53 PM 48.0 °F - 24.1 °F 39% 30.29 in 10.0 mi NNW 13.8 mph 21.9 mph N/A   Overcast
2:53 PM 48.9 °F - 24.1 °F 38% 30.29 in 10.0 mi NNW 13.8 mph - N/A   Overcast
3:53 PM 51.1 °F - 24.1 °F 35% 30.28 in 10.0 mi WNW 13.8 mph 21.9 mph N/A   Mostly Cloudy
4:53 PM 46.9 °F - 23.0 °F 39% 30.29 in 10.0 mi NNW 10.4 mph - N/A   Clear
5:53 PM 48.0 °F - 25.0 °F 41% 30.30 in 10.0 mi NW 12.7 mph 19.6 mph N/A   Clear
6:53 PM 45.0 °F 39.7 °F 24.1 °F 44% 30.31 in 10.0 mi NNW 10.4 mph - N/A   Clear
7:53 PM 42.1 °F 37.1 °F 24.1 °F 49% 30.33 in 10.0 mi North 8.1 mph - N/A   Clear
8:53 PM 39.9 °F 35.8 °F 25.0 °F 55% 30.35 in 10.0 mi NNW 5.8 mph - N/A   Clear
9:53 PM 39.0 °F 36.8 °F 24.1 °F 55% 30.36 in 10.0 mi NW 3.5 mph - N/A   Clear
10:53 PM 36.0 °F 31.1 °F 25.0 °F 64% 30.37 in 10.0 mi NW 5.8 mph - N/A   Clear
11:53 PM 36.0 °F 32.1 °F 25.0 °F 64% 30.37 in 10.0 mi NW 4.6 mph - N/A   Mostly Cloudy